{"data":{"norad_id":56495,"epoch":"2026-09-20T11:45:55.068480Z","epoch_age_seconds":112850,"freshness":"FRESH","line1":"1 56495U 23064AZ  26263.49022070  .00000228  00000+0  26941-4 0  9994","line2":"2 56495  69.9993 333.2199 0003241 269.5101  90.5686 14.98332989185419","mean_motion":14.98332989,"eccentricity":0.0003241,"inclination_deg":69.9993,"raan_deg":333.2199,"arg_perigee_deg":269.5101,"mean_anomaly_deg":90.5686,"bstar":2.6941e-5,"rev_number":18541,"period_min":96.106807403411,"perigee_km":569.79409320362,"apogee_km":574.29920224407,"semimajor_km":6950.1836477238,"source":"CELESTRAK","updated_at":"2026-09-21T09:00:33.467836Z"}}